| time (UTC) | temp C | wind direction | speed KPH | gust KPH | rain 1hr cm | rain 24hr cm | rain mn cm | humidity % | barometer mb |
| 20260906203045 | 28 | 81 | 0.0 | 4.8 | 0.00 | 0.00 | 0.00 | 82 | 1012.6 |
| 20260906201548 | 28 | 146 | 1.6 | 6.4 | 0.00 | 0.00 | 0.00 | 83 | 1012.7 |
| 20260906200041 | 28 | 133 | 1.6 | 9.7 | 0.00 | 0.00 | 0.00 | 82 | 1012.5 |
| 20260906194537 | 28 | 139 | 3.2 | 6.4 | 0.00 | 0.00 | 0.00 | 84 | 1012.4 |
| 20260906193036 | 28 | 150 | 3.2 | 6.4 | 0.00 | 0.00 | 0.00 | 84 | 1012.3 |
| 20260906191531 | 27 | 155 | 3.2 | 8.0 | 0.00 | 0.00 | 0.00 | 85 | 1012.4 |
| 20260906190029 | 27 | 153 | 4.8 | 9.7 | 0.00 | 0.00 | 0.00 | 86 | 1012.6 |
| 20260906184526 | 27 | 146 | 0.0 | 3.2 | 0.00 | 0.00 | 0.00 | 89 | 1012.6 |
| 20260906183025 | 26 | 94 | 0.0 | 4.8 | 0.00 | 0.00 | 0.00 | 89 | 1013.0 |
| 20260906181520 | 26 | 149 | 0.0 | 6.4 | 0.00 | 0.00 | 0.00 | 89 | 1013.3 |
| 20260906180016 | 26 | 108 | 0.0 | 4.8 | 0.00 | 0.00 | 0.00 | 90 | 1013.5 |
| 20260906174517 | 25 | 169 | 1.6 | 6.4 | 0.00 | 0.00 | 0.00 | 90 | 1013.6 |
| 20260906173012 | 25 | 151 | 3.2 | 8.0 | 0.00 | 0.00 | 0.00 | 90 | 1013.7 |
| 20260906171508 | 24 | 161 | 1.6 | 6.4 | 0.00 | 0.00 | 0.00 | 91 | 1013.9 |
| 20260906170006 | 24 | 123 | 1.6 | 8.0 | 0.00 | 0.13 | 0.00 | 92 | 1014.2 |
| 20260906164504 | 23 | 127 | 1.6 | 6.4 | 0.00 | 0.13 | 0.00 | 92 | 1014.5 |
| 20260906163002 | 23 | 117 | 0.0 | 6.4 | 0.00 | 0.13 | 0.00 | 93 | 1014.5 |
| 20260906161504 | 23 | 107 | 0.0 | 8.0 | 0.00 | 0.13 | 0.00 | 93 | 1014.6 |
| 20260906160101 | 23 | 141 | 0.0 | 4.8 | 0.00 | 0.13 | 0.00 | 92 | 1014.6 |
| 20260906154558 | 23 | 100 | 0.0 | 4.8 | 0.00 | 0.25 | 0.00 | 93 | 1014.6 |
| 20260906153114 | 23 | 108 | 0.0 | 4.8 | 0.00 | 0.25 | 0.00 | 93 | 1014.6 |
| 20260906151600 | 23 | 140 | 0.0 | 8.0 | 0.00 | 0.25 | 0.00 | 94 | 1014.7 |
| 20260906150050 | 22 | 135 | 0.0 | 4.8 | 0.00 | 0.25 | 0.00 | 94 | 1014.7 |
| 20260906144553 | 22 | 125 | 0.0 | 6.4 | 0.00 | 0.25 | 0.00 | 94 | 1014.7 |
| 20260906143050 | 22 | 146 | 1.6 | 8.0 | 0.00 | 0.25 | 0.00 | 94 | 1014.8 |
| 20260906141546 | 22 | 80 | 1.6 | 6.4 | 0.00 | 0.25 | 0.00 | 94 | 1014.9 |
| 20260906140040 | 21 | 145 | 0.0 | 3.2 | 0.00 | 0.25 | 0.00 | 95 | 1014.9 |
| 20260906134554 | 21 | 124 | 0.0 | 1.6 | 0.00 | 0.25 | 0.00 | 96 | 1015.0 |
| 20260906133048 | 21 | 131 | 0.0 | 1.6 | 0.00 | 0.25 | 0.00 | 96 | 1015.1 |
| 20260906131537 | 20 | 103 | 0.0 | 1.6 | 0.00 | 0.25 | 0.00 | 97 | 1015.0 |
| 20260906130035 | 20 | 146 | 0.0 | 1.6 | 0.00 | 0.25 | 0.00 | 97 | 1015.0 |
| 20260906124535 | 20 | 138 | 0.0 | 0.0 | 0.00 | 0.25 | 0.00 | 97 | 1014.9 |
| 20260906123050 | 20 | 96 | 0.0 | 1.6 | 0.00 | 0.25 | 0.00 | 97 | 1014.8 |
| 20260906121536 | 19 | 142 | 0.0 | 1.6 | 0.00 | 0.25 | 0.00 | 97 | 1014.8 |
| 20260906120032 | 20 | 136 | 0.0 | 1.6 | 0.00 | 0.25 | 0.00 | 97 | 1014.8 |
| 20260906114532 | 20 | 139 | 0.0 | 0.0 | 0.00 | 0.25 | 0.00 | 96 | 1014.6 |
| 20260906113034 | 20 | 150 | 0.0 | 0.0 | 0.00 | 0.25 | 0.00 | 96 | 1014.7 |
| 20260906111533 | 20 | 131 | 0.0 | 4.8 | 0.00 | 0.25 | 0.00 | 96 | 1014.7 |
| 20260906110031 | 20 | 149 | 0.0 | 1.6 | 0.00 | 0.25 | 0.00 | 97 | 1014.7 |
| 20260906104529 | 20 | 155 | 0.0 | 1.6 | 0.00 | 0.25 | 0.00 | 96 | 1014.8 |
| 20260906103028 | 20 | 146 | 0.0 | 0.0 | 0.00 | 0.25 | 0.00 | 96 | 1014.5 |
| 20260906101531 | 20 | 141 | 0.0 | 0.0 | 0.00 | 0.25 | 0.00 | 97 | 1014.5 |
| 20260906100031 | 20 | 105 | 0.0 | 0.0 | 0.00 | 0.25 | 0.00 | 97 | 1014.7 |
| 20260906094527 | 20 | 105 | 0.0 | 0.0 | 0.00 | 0.25 | 0.00 | 97 | 1014.7 |
| 20260906093036 | 19 | 138 | 0.0 | 1.6 | 0.00 | 0.25 | 0.00 | 98 | 1014.7 |
| 20260906091526 | 19 | 26 | 0.0 | 0.0 | 0.00 | 0.25 | 0.00 | 97 | 1014.5 |
| 20260906090039 | 19 | 26 | 0.0 | 0.0 | 0.00 | 0.25 | 0.00 | 97 | 1014.4 |
| 20260906084525 | 19 | 26 | 0.0 | 0.0 | 0.00 | 0.25 | 0.00 | 97 | 1014.5 |
| 20260906083030 | 19 | 26 | 0.0 | 0.0 | 0.00 | 0.25 | 0.00 | 97 | 1014.5 |
| 20260906081523 | 19 | 35 | 0.0 | 0.0 | 0.00 | 0.25 | 0.00 | 96 | 1014.5 |
| 20260906080021 | 20 | 130 | 0.0 | 0.0 | 0.00 | 0.25 | 0.00 | 96 | 1014.4 |
| 20260906074521 | 20 | 130 | 0.0 | 0.0 | 0.00 | 0.25 | 0.00 | 96 | 1014.5 |
| 20260906073019 | 20 | 130 | 0.0 | 0.0 | 0.00 | 0.25 | 0.00 | 95 | 1014.6 |
| 20260906071517 | 20 | 133 | 0.0 | 0.0 | 0.00 | 0.25 | 0.00 | 95 | 1014.6 |
| 20260906070016 | 20 | 133 | 0.0 | 0.0 | 0.00 | 0.25 | 0.00 | 95 | 1014.7 |
| 20260906064516 | 20 | 133 | 0.0 | 0.0 | 0.00 | 0.25 | 0.00 | 95 | 1014.7 |
| 20260906063024 | 20 | 133 | 0.0 | 0.0 | 0.00 | 0.25 | 0.00 | 96 | 1014.8 |
| 20260906061514 | 20 | 133 | 0.0 | 0.0 | 0.00 | 0.25 | 0.00 | 95 | 1014.8 |
| 20260906060011 | 20 | 134 | 0.0 | 0.0 | 0.00 | 0.25 | 0.00 | 95 | 1014.7 |
| 20260906054509 | 20 | 133 | 0.0 | 1.6 | 0.00 | 0.25 | 0.00 | 95 | 1014.4 |
| 20260906053008 | 21 | 153 | 0.0 | 4.8 | 0.00 | 0.25 | 0.00 | 94 | 1014.2 |
| 20260906051506 | 21 | 134 | 1.6 | 4.8 | 0.00 | 0.25 | 0.00 | 94 | 1014.1 |
| 20260906050002 | 21 | 108 | 0.0 | 1.6 | 0.00 | 0.25 | 0.25 | 93 | 1014.3 |
| 20260906044501 | 21 | 123 | 0.0 | 0.0 | 0.00 | 0.25 | 0.25 | 93 | 1014.4 |
| 20260906043001 | 21 | 123 | 0.0 | 0.0 | 0.00 | 0.25 | 0.25 | 91 | 1014.5 |
| 20260906041502 | 22 | 123 | 0.0 | 1.6 | 0.00 | 0.25 | 0.25 | 91 | 1014.4 |
| 20260906040100 | 22 | 123 | 0.0 | 1.6 | 0.00 | 0.25 | 0.25 | 90 | 1014.3 |
| 20260906034629 | 22 | 123 | 0.0 | 1.6 | 0.00 | 0.25 | 0.25 | 90 | 1014.3 |
| 20260906033102 | 22 | 123 | 0.0 | 3.2 | 0.00 | 0.25 | 0.25 | 90 | 1014.5 |
| 20260906031600 | 22 | 103 | 0.0 | 1.6 | 0.00 | 0.25 | 0.25 | 89 | 1014.7 |
| 20260906030058 | 22 | 109 | 0.0 | 1.6 | 0.00 | 0.25 | 0.25 | 91 | 1014.7 |
| 20260906024559 | 22 | 204 | 0.0 | 0.0 | 0.00 | 0.25 | 0.25 | 90 | 1014.6 |
| 20260906023057 | 22 | 204 | 0.0 | 1.6 | 0.00 | 0.25 | 0.25 | 90 | 1014.4 |
| 20260906021558 | 23 | 204 | 0.0 | 0.0 | 0.00 | 0.25 | 0.25 | 90 | 1014.0 |
| 20260906020100 | 23 | 204 | 0.0 | 1.6 | 0.00 | 0.25 | 0.25 | 88 | 1014.0 |
| 20260906014556 | 23 | 204 | 1.6 | 3.2 | 0.00 | 0.25 | 0.25 | 86 | 1014.4 |
| 20260906013105 | 23 | 65 | 0.0 | 0.0 | 0.00 | 0.25 | 0.25 | 86 | 1013.9 |
| 20260906011556 | 24 | 65 | 0.0 | 0.0 | 0.00 | 0.25 | 0.25 | 84 | 1013.5 |
| 20260906010055 | 25 | 113 | 0.0 | 0.0 | 0.00 | 0.25 | 0.25 | 80 | 1013.4 |
| 20260906004555 | 26 | 113 | 0.0 | 0.0 | 0.00 | 0.25 | 0.25 | 79 | 1013.0 |
| 20260906003053 | 26 | 216 | 1.6 | 4.8 | 0.00 | 0.25 | 0.25 | 77 | 1012.9 |
| 20260906001553 | 27 | 192 | 1.6 | 4.8 | 0.00 | 0.25 | 0.25 | 76 | 1012.7 |
| 20260906000104 | 28 | 220 | 3.2 | 6.4 | 0.00 | 0.25 | 0.25 | 73 | 1012.2 |
| 20260905234606 | 28 | 159 | 1.6 | 9.7 | 0.00 | 0.25 | 0.25 | 73 | 1011.6 |
| 20260905233049 | 28 | 155 | 0.0 | 4.8 | 0.00 | 0.25 | 0.25 | 74 | 1011.7 |
| 20260905231547 | 28 | 203 | 1.6 | 11.3 | 0.00 | 0.25 | 0.25 | 73 | 1011.9 |
| 20260905230046 | 28 | 208 | 4.8 | 11.3 | 0.00 | 0.25 | 0.25 | 71 | 1012.1 |
| 20260905224546 | 28 | 211 | 4.8 | 11.3 | 0.00 | 0.25 | 0.25 | 70 | 1012.0 |
| 20260905223050 | 28 | 198 | 6.4 | 17.7 | 0.00 | 0.25 | 0.25 | 70 | 1012.0 |
| 20260905221543 | 28 | 162 | 4.8 | 16.1 | 0.00 | 0.25 | 0.25 | 72 | 1011.9 |
| 20260905220041 | 28 | 177 | 6.4 | 14.5 | 0.00 | 0.25 | 0.25 | 72 | 1011.9 |
| 20260905214539 | 28 | 169 | 4.8 | 17.7 | 0.00 | 0.25 | 0.25 | 73 | 1012.0 |
| 20260905213037 | 28 | 160 | 8.0 | 14.5 | 0.00 | 0.25 | 0.25 | 74 | 1012.1 |
| 20260905211538 | 28 | 175 | 8.0 | 14.5 | 0.00 | 0.25 | 0.25 | 73 | 1012.3 |
| 20260905210046 | 27 | 234 | 6.4 | 19.3 | 0.00 | 0.25 | 0.25 | 74 | 1012.3 |
| 20260905204535 | 27 | 176 | 6.4 | 19.3 | 0.00 | 0.25 | 0.25 | 75 | 1012.6 |